VOI44 MMQT-MMMX

Flight info

Callsign VOI44
Flight time 0h 17m
Altitude 19000
Route PITUS1 PITUS DCT DARAN DARAN3B
Aircraft A320/M-SDE3FGHIRWY/LB1

Departure

Time 2026-05-07 02:05
Airport Querétaro Intercontinental Airport (MMQT)

Arrival

Time 2026-05-07 02:22
Airport Mexico City Benito Juárez International Airport (MMMX)
Time Latitude Longitude Altitude Speed Heading
2026-05-07 01:58 20.62107 -100.18771 6611 ft 0 kts 279°
2026-05-07 01:59 20.62107 -100.18772 6611 ft 0 kts 279°
2026-05-07 01:59 20.62108 -100.18778 6611 ft 1 kts 280°
2026-05-07 01:59 20.62110 -100.18790 6612 ft 2 kts 280°
2026-05-07 01:59 20.62114 -100.18811 6612 ft 3 kts 282°
2026-05-07 02:00 20.62119 -100.18838 6613 ft 4 kts 282°
2026-05-07 02:00 20.62127 -100.18871 6613 ft 5 kts 282°
2026-05-07 02:00 20.62135 -100.18912 6613 ft 6 kts 282°
2026-05-07 02:00 20.62142 -100.18959 6613 ft 7 kts 279°
2026-05-07 02:01 20.62151 -100.19014 6612 ft 8 kts 279°
2026-05-07 02:01 20.62161 -100.19076 6612 ft 9 kts 279°
2026-05-07 02:01 20.62171 -100.19145 6612 ft 10 kts 279°
2026-05-07 02:01 20.62188 -100.19219 6612 ft 11 kts 283°
2026-05-07 02:02 20.62171 -100.19288 6610 ft 11 kts 207°
2026-05-07 02:02 20.62089 -100.19309 6606 ft 14 kts 192°
2026-05-07 02:02 20.62055 -100.19387 6603 ft 15 kts 281°
2026-05-07 02:02 20.62074 -100.19497 6603 ft 15 kts 280°
2026-05-07 02:03 20.62095 -100.19610 6601 ft 16 kts 282°
2026-05-07 02:03 20.62119 -100.19727 6601 ft 16 kts 282°
2026-05-07 02:03 20.62143 -100.19847 6601 ft 17 kts 282°
2026-05-07 02:03 20.62161 -100.19970 6601 ft 17 kts 276°
2026-05-07 02:04 20.62185 -100.20081 6595 ft 13 kts 282°
2026-05-07 02:04 20.62162 -100.20168 6589 ft 15 kts 195°
2026-05-07 02:04 20.62054 -100.20186 6573 ft 15 kts 162°
2026-05-07 02:04 20.62016 -100.20070 6574 ft 30 kts 101°
2026-05-07 02:05 20.61928 -100.19588 6578 ft 101 kts 101°
2026-05-07 02:05 20.61754 -100.18648 6588 ft 155 kts 101°
2026-05-07 02:05 20.61515 -100.17368 6810 ft 188 kts 101°
2026-05-07 02:05 20.61303 -100.15973 7479 ft 196 kts 99°
2026-05-07 02:06 20.61113 -100.14507 7832 ft 203 kts 98°
2026-05-07 02:06 20.60930 -100.12982 8517 ft 210 kts 97°
2026-05-07 02:06 20.60740 -100.11411 9287 ft 213 kts 97°
2026-05-07 02:06 20.60521 -100.09774 9834 ft 238 kts 99°
2026-05-07 02:07 20.60355 -100.08579 10156 ft 250 kts 99°
2026-05-07 02:07 20.58639 -100.04680 11836 ft 266 kts 143°
2026-05-07 02:07 20.57114 -100.03525 12627 ft 272 kts 145°
2026-05-07 02:08 20.56060 -100.02740 13160 ft 276 kts 146°
2026-05-07 02:08 20.53894 -100.01128 13900 ft 297 kts 146°
2026-05-07 02:08 20.52729 -100.00260 14221 ft 308 kts 146°
2026-05-07 02:08 20.50934 -99.98917 14696 ft 323 kts 146°
2026-05-07 02:09 20.49082 -99.97525 15177 ft 336 kts 146°
2026-05-07 02:09 20.47135 -99.96056 15673 ft 349 kts 145°
2026-05-07 02:09 20.45091 -99.94512 16174 ft 362 kts 145°
2026-05-07 02:09 20.43035 -99.92959 16770 ft 369 kts 145°
2026-05-07 02:10 20.40931 -99.91373 17535 ft 372 kts 145°
2026-05-07 02:10 20.38800 -99.89774 18217 ft 378 kts 146°
2026-05-07 02:10 20.36631 -99.88149 18822 ft 384 kts 146°
2026-05-07 02:10 20.34431 -99.86500 19438 ft 389 kts 146°
2026-05-07 02:11 20.32262 -99.84871 20612 ft 376 kts 146°
2026-05-07 02:11 20.30120 -99.83262 21313 ft 380 kts 146°
2026-05-07 02:11 20.27938 -99.81623 21644 ft 388 kts 146°
2026-05-07 02:11 20.25702 -99.79944 21861 ft 396 kts 146°
2026-05-07 02:12 20.23436 -99.78243 22203 ft 399 kts 146°
2026-05-07 02:12 20.21170 -99.76543 22667 ft 399 kts 146°
2026-05-07 02:12 20.18893 -99.74838 23120 ft 401 kts 146°
2026-05-07 02:12 20.16605 -99.73125 23531 ft 402 kts 146°
2026-05-07 02:13 20.14312 -99.71405 23832 ft 404 kts 146°
2026-05-07 02:13 20.12011 -99.69679 23918 ft 405 kts 146°
2026-05-07 02:13 20.09742 -99.67977 23945 ft 405 kts 146°
2026-05-07 02:13 20.07409 -99.66230 23945 ft 404 kts 146°
2026-05-07 02:14 20.05144 -99.64534 23956 ft 404 kts 146°
2026-05-07 02:14 20.02843 -99.62812 23956 ft 404 kts 146°
2026-05-07 02:14 20.00541 -99.61093 23956 ft 404 kts 146°
2026-05-07 02:14 19.98244 -99.59375 23956 ft 404 kts 146°
2026-05-07 02:15 19.95943 -99.57656 23959 ft 404 kts 146°
2026-05-07 02:15 19.93644 -99.55941 23961 ft 404 kts 146°
2026-05-07 02:15 19.91341 -99.54227 23961 ft 404 kts 146°
2026-05-07 02:15 19.89037 -99.52512 23961 ft 404 kts 146°
2026-05-07 02:16 19.86735 -99.50797 23960 ft 405 kts 146°
2026-05-07 02:16 19.84425 -99.49076 23958 ft 405 kts 146°
2026-05-07 02:16 19.82118 -99.47359 23955 ft 405 kts 146°
2026-05-07 02:16 19.79811 -99.45641 23944 ft 405 kts 146°
2026-05-07 02:17 19.77496 -99.43917 23233 ft 411 kts 146°
2026-05-07 02:17 19.75118 -99.42149 22060 ft 423 kts 146°
2026-05-07 02:17 19.72677 -99.40336 20858 ft 434 kts 146°
2026-05-07 02:17 19.70178 -99.38477 19639 ft 444 kts 145°
2026-05-07 02:18 19.67642 -99.36589 18745 ft 445 kts 145°
2026-05-07 02:18 19.65114 -99.34710 18002 ft 441 kts 145°
2026-05-07 02:18 19.62611 -99.32851 17230 ft 437 kts 145°
2026-05-07 02:18 19.60136 -99.31010 16506 ft 432 kts 144°
2026-05-07 02:19 19.57719 -99.29213 15807 ft 428 kts 144°
2026-05-07 02:19 19.55317 -99.27428 14820 ft 418 kts 144°
2026-05-07 02:19 19.52952 -99.25675 13655 ft 412 kts 145°
2026-05-07 02:19 19.50617 -99.23948 12415 ft 407 kts 144°
2026-05-07 02:20 19.48302 -99.22235 11213 ft 402 kts 144°
2026-05-07 02:20 19.46026 -99.20551 10104 ft 397 kts 144°
2026-05-07 02:20 19.43813 -99.18913 9483 ft 377 kts 144°
2026-05-07 02:20 19.41740 -99.17375 9340 ft 350 kts 145°
2026-05-07 02:21 19.39979 -99.15747 9255 ft 325 kts 126°
2026-05-07 02:21 19.39159 -99.13630 9142 ft 306 kts 96°
2026-05-07 02:21 19.39464 -99.11487 8982 ft 287 kts 65°
2026-05-07 02:21 19.40694 -99.10005 8685 ft 261 kts 30°
2026-05-07 02:22 19.42259 -99.09068 7476 ft 258 kts 41°
2026-05-07 02:22 19.43251 -99.07594 7318 ft 237 kts 59°
2026-05-07 02:22 19.43915 -99.06404 7302 ft 116 kts 59°
2026-05-07 02:22 19.44170 -99.05960 7300 ft 32 kts 58°
2026-05-07 02:23 19.44256 -99.05914 7302 ft 13 kts 324°
2026-05-07 02:23 19.44306 -99.05992 7303 ft 13 kts 295°
2026-05-07 02:23 19.44344 -99.06081 7303 ft 14 kts 293°
2026-05-07 02:23 19.44381 -99.06179 7301 ft 15 kts 291°
2026-05-07 02:24 19.44419 -99.06279 7303 ft 15 kts 291°
2026-05-07 02:24 19.44395 -99.06375 7303 ft 14 kts 237°
2026-05-07 02:24 19.44343 -99.06466 7303 ft 15 kts 240°
2026-05-07 02:24 19.44288 -99.06561 7303 ft 15 kts 239°
2026-05-07 02:25 19.44233 -99.06662 7303 ft 16 kts 238°
2026-05-07 02:25 19.44175 -99.06763 7303 ft 17 kts 239°
2026-05-07 02:25 19.44114 -99.06870 7303 ft 17 kts 239°
2026-05-07 02:25 19.44052 -99.06981 7303 ft 18 kts 239°
2026-05-07 02:26 19.43987 -99.07096 7303 ft 18 kts 239°
2026-05-07 02:26 19.43921 -99.07214 7303 ft 19 kts 240°
2026-05-07 02:26 19.43854 -99.07336 7303 ft 19 kts 240°
2026-05-07 02:26 19.43782 -99.07460 7303 ft 20 kts 238°
2026-05-07 02:27 19.43708 -99.07587 7303 ft 20 kts 239°
2026-05-07 02:27 19.43637 -99.07720 7303 ft 21 kts 241°
2026-05-07 02:27 19.43567 -99.07857 7303 ft 21 kts 242°
2026-05-07 02:27 19.43486 -99.07990 7303 ft 22 kts 238°
2026-05-07 02:28 19.43408 -99.08128 7303 ft 22 kts 239°
2026-05-07 02:28 19.43339 -99.08250 7303 ft 13 kts 239°
2026-05-07 02:28 19.43290 -99.08337 7303 ft 14 kts 240°
2026-05-07 02:28 19.43274 -99.08365 7303 ft 0 kts 239°
2026-05-07 02:34 19.43274 -99.08366 7303 ft 0 kts 239°
2026-05-07 02:34 19.43265 -99.08381 7303 ft 6 kts 239°
2026-05-07 02:35 19.43242 -99.08421 7303 ft 7 kts 239°
2026-05-07 02:35 19.43218 -99.08464 7303 ft 7 kts 239°
2026-05-07 02:35 19.43193 -99.08511 7303 ft 8 kts 240°
2026-05-07 02:35 19.43166 -99.08560 7303 ft 8 kts 239°
2026-05-07 02:36 19.43137 -99.08612 7303 ft 8 kts 239°
2026-05-07 02:36 19.43106 -99.08667 7303 ft 9 kts 239°
2026-05-07 02:36 19.43119 -99.08721 7303 ft 8 kts 302°
2026-05-07 02:36 19.43164 -99.08759 7303 ft 9 kts 329°
2026-05-07 02:37 19.43215 -99.08752 7303 ft 9 kts 62°
2026-05-07 02:37 19.43221 -99.08738 7303 ft 0 kts 65°